Location: Gwatt
(46.7204°N, 7.6223°E)
Time: 14:17:34
(UTC+00:00)

Cosmos 1048 Rocket - Pass Details

Date: 18 September 2020
Orbit: 742 x 792 km, 74.0° (Epoch: 24 October)

Event Time Altitude Azimuth Distance (km) Brightness Sun altitude
Rises 19:24:09 0° 338° (NNW) 3,257 8.0 -19.0°
Reaches altitude 10° 19:26:31 10° 339° (NNW) 2,334 7.1 -19.4°
Maximum altitude 19:31:51 84° 68° (ENE) 793 3.9 -20.2°
Enters shadow 19:34:11 35° 154° (SSE) 1,249 4.7 -20.6°
